| time (UTC) | temp F | wind direction | speed MPH | gust MPH | rain 1hr in | rain 24hr in | rain mn in | humidity % | barometer mb |
| 20260902191549 | 54 | 312 | 5.0 | 13.0 | 0.00 | 0.00 | 0.00 | 66 | 1009.4 |
| 20260902190040 | 53 | 355 | 5.0 | 11.0 | 0.00 | 0.00 | 0.00 | 67 | 1009.1 |
| 20260902184548 | 53 | 325 | 5.0 | 10.0 | 0.00 | 0.00 | 0.00 | 67 | 1009.0 |
| 20260902181536 | 53 | 301 | 4.0 | 11.0 | 0.00 | 0.00 | 0.00 | 69 | 1009.0 |
| 20260902180038 | 53 | 278 | 5.0 | 8.0 | 0.00 | 0.00 | 0.00 | 70 | 1009.0 |
| 20260902174531 | 53 | 306 | 4.0 | 11.0 | 0.00 | 0.00 | 0.00 | 69 | 1008.9 |
| 20260902173130 | 53 | 328 | 5.0 | 11.0 | 0.00 | 0.00 | 0.00 | 70 | 1009.1 |
| 20260902171528 | 53 | 328 | 3.0 | 11.0 | 0.00 | 0.00 | 0.00 | 69 | 1009.3 |
| 20260902170027 | 53 | 327 | 5.0 | 14.0 | 0.00 | 0.00 | 0.00 | 68 | 1009.1 |
| 20260902164524 | 53 | 313 | 3.0 | 12.0 | 0.00 | 0.00 | 0.00 | 70 | 1009.6 |
| 20260902163138 | 53 | 336 | 2.0 | 9.0 | 0.00 | 0.00 | 0.00 | 71 | 1010.1 |
| 20260902161520 | 53 | 304 | 3.0 | 9.0 | 0.00 | 0.00 | 0.00 | 71 | 1010.2 |
| 20260902160018 | 53 | 308 | 3.0 | 9.0 | 0.00 | 0.00 | 0.00 | 71 | 1010.2 |
| 20260902154525 | 53 | 330 | 4.0 | 9.0 | 0.00 | 0.00 | 0.00 | 72 | 1010.0 |
| 20260902153116 | 52 | 321 | 4.0 | 9.0 | 0.00 | 0.00 | 0.00 | 72 | 1010.1 |
| 20260902151514 | 52 | 311 | 2.0 | 9.0 | 0.00 | 0.00 | 0.00 | 72 | 1010.2 |
| 20260902150012 | 52 | 315 | 2.0 | 7.0 | 0.00 | 0.00 | 0.00 | 71 | 1010.1 |
| 20260902144518 | 53 | 259 | 2.0 | 9.0 | 0.00 | 0.00 | 0.00 | 70 | 1010.1 |
| 20260902143109 | 53 | 305 | 4.0 | 9.0 | 0.00 | 0.00 | 0.00 | 70 | 1010.1 |
| 20260902141509 | 53 | 325 | 3.0 | 8.0 | 0.00 | 0.00 | 0.00 | 69 | 1010.2 |
| 20260902140002 | 53 | 292 | 2.0 | 10.0 | 0.00 | 0.00 | 0.00 | 68 | 1010.4 |
| 20260902134601 | 53 | 308 | 4.0 | 9.0 | 0.00 | 0.00 | 0.00 | 67 | 1010.5 |
| 20260902133108 | 54 | 300 | 3.0 | 10.0 | 0.00 | 0.00 | 0.00 | 67 | 1010.7 |
| 20260902131602 | 54 | 327 | 4.0 | 10.0 | 0.00 | 0.00 | 0.00 | 67 | 1010.8 |
| 20260902130053 | 54 | 302 | 3.0 | 10.0 | 0.00 | 0.00 | 0.00 | 66 | 1010.9 |
| 20260902124552 | 55 | 287 | 1.0 | 9.0 | 0.00 | 0.00 | 0.00 | 66 | 1011.1 |
| 20260902123106 | 56 | 309 | 2.0 | 7.0 | 0.00 | 0.00 | 0.00 | 64 | 1011.3 |
| 20260902121558 | 56 | 283 | 4.0 | 10.0 | 0.00 | 0.00 | 0.00 | 64 | 1011.4 |
| 20260902120105 | 56 | 316 | 2.0 | 9.0 | 0.00 | 0.00 | 0.00 | 69 | 1011.6 |
| 20260902114550 | 55 | 309 | 0.0 | 5.0 | 0.00 | 0.00 | 0.00 | 70 | 1011.6 |
| 20260902113051 | 56 | 347 | 0.0 | 3.0 | 0.00 | 0.00 | 0.00 | 69 | 1011.7 |
| 20260902111556 | 56 | 347 | 0.0 | 4.0 | 0.00 | 0.00 | 0.00 | 69 | 1011.7 |
| 20260902110048 | 56 | 348 | 1.0 | 5.0 | 0.00 | 0.00 | 0.00 | 70 | 1011.8 |
| 20260902104548 | 55 | 318 | 0.0 | 3.0 | 0.00 | 0.00 | 0.00 | 70 | 1011.8 |
| 20260902103048 | 55 | 325 | 0.0 | 3.0 | 0.00 | 0.00 | 0.00 | 70 | 1011.9 |
| 20260902101550 | 55 | 309 | 0.0 | 2.0 | 0.00 | 0.00 | 0.00 | 70 | 1011.7 |
| 20260902094548 | 55 | 308 | 0.0 | 0.0 | 0.00 | 0.00 | 0.00 | 70 | 1011.4 |
| 20260902093048 | 54 | 308 | 0.0 | 0.0 | 0.00 | 0.00 | 0.00 | 70 | 1011.2 |
| 20260902091552 | 54 | 308 | 0.0 | 2.0 | 0.00 | 0.00 | 0.00 | 70 | 1011.1 |
| 20260902090047 | 55 | 284 | 0.0 | 1.0 | 0.00 | 0.00 | 0.00 | 69 | 1011.0 |
| 20260902084547 | 55 | 281 | 0.0 | 0.0 | 0.00 | 0.00 | 0.00 | 68 | 1011.0 |
| 20260902083049 | 56 | 281 | 0.0 | 0.0 | 0.00 | 0.00 | 0.00 | 66 | 1011.1 |
| 20260902081549 | 56 | 281 | 0.0 | 1.0 | 0.00 | 0.00 | 0.00 | 65 | 1011.0 |
| 20260902080048 | 57 | 278 | 0.0 | 4.0 | 0.00 | 0.00 | 0.00 | 65 | 1011.1 |
| 20260902074552 | 58 | 269 | 0.0 | 3.0 | 0.00 | 0.00 | 0.00 | 64 | 1011.0 |
| 20260902073046 | 58 | 258 | 2.0 | 9.0 | 0.00 | 0.00 | 0.00 | 62 | 1010.9 |
| 20260902071547 | 59 | 263 | 1.0 | 7.0 | 0.00 | 0.00 | 0.00 | 62 | 1010.9 |
| 20260902070045 | 59 | 243 | 2.0 | 7.0 | 0.00 | 0.00 | 0.00 | 60 | 1010.9 |
| 20260902064543 | 60 | 248 | 2.0 | 7.0 | 0.00 | 0.00 | 0.00 | 60 | 1011.1 |
| 20260902063054 | 60 | 286 | 2.0 | 12.0 | 0.00 | 0.00 | 0.00 | 60 | 1011.4 |
| 20260902061600 | 61 | 219 | 4.0 | 12.0 | 0.00 | 0.00 | 0.00 | 59 | 1011.5 |
| 20260902060039 | 61 | 248 | 5.0 | 12.0 | 0.00 | 0.00 | 0.00 | 58 | 1011.7 |
| 20260902054544 | 61 | 271 | 6.0 | 14.0 | 0.00 | 0.00 | 0.00 | 59 | 1011.8 |
| 20260902053039 | 61 | 271 | 4.0 | 14.0 | 0.00 | 0.00 | 0.00 | 59 | 1011.9 |
| 20260902051544 | 61 | 228 | 6.0 | 13.0 | 0.00 | 0.00 | 0.00 | 59 | 1012.0 |
| 20260902050056 | 61 | 263 | 7.0 | 14.0 | 0.00 | 0.00 | 0.00 | 59 | 1012.1 |
| 20260902044538 | 61 | 223 | 6.0 | 13.0 | 0.00 | 0.00 | 0.00 | 58 | 1012.2 |
| 20260902043045 | 61 | 228 | 6.0 | 13.0 | 0.00 | 0.00 | 0.00 | 58 | 1012.1 |
| 20260902041539 | 61 | 270 | 6.0 | 11.0 | 0.00 | 0.00 | 0.00 | 59 | 1012.2 |
| 20260902040039 | 61 | 238 | 4.0 | 13.0 | 0.00 | 0.00 | 0.00 | 59 | 1012.4 |
| 20260902034538 | 61 | 290 | 6.0 | 12.0 | 0.00 | 0.00 | 0.00 | 59 | 1012.5 |
| 20260902033038 | 61 | 212 | 5.0 | 11.0 | 0.00 | 0.00 | 0.00 | 59 | 1012.9 |
| 20260902031538 | 60 | 250 | 5.0 | 12.0 | 0.00 | 0.00 | 0.00 | 59 | 1013.0 |
| 20260902030037 | 61 | 249 | 5.0 | 13.0 | 0.00 | 0.00 | 0.00 | 59 | 1013.4 |
| 20260902024546 | 60 | 231 | 6.0 | 13.0 | 0.00 | 0.00 | 0.00 | 59 | 1013.7 |
| 20260902023036 | 60 | 259 | 6.0 | 13.0 | 0.00 | 0.00 | 0.00 | 60 | 1014.0 |
| 20260902021535 | 59 | 262 | 5.0 | 11.0 | 0.00 | 0.00 | 0.00 | 62 | 1014.2 |
| 20260902020036 | 58 | 244 | 5.0 | 13.0 | 0.00 | 0.00 | 0.00 | 63 | 1014.4 |
| 20260902014534 | 59 | 232 | 5.0 | 12.0 | 0.00 | 0.00 | 0.00 | 62 | 1014.5 |
| 20260902013039 | 58 | 270 | 4.0 | 11.0 | 0.00 | 0.00 | 0.00 | 65 | 1014.7 |
| 20260902011536 | 57 | 277 | 5.0 | 9.0 | 0.00 | 0.00 | 0.00 | 66 | 1014.9 |
| 20260902010032 | 57 | 262 | 2.0 | 12.0 | 0.00 | 0.00 | 0.00 | 67 | 1015.1 |
| 20260902004532 | 57 | 286 | 1.0 | 11.0 | 0.00 | 0.00 | 0.00 | 68 | 1015.2 |
| 20260902003032 | 57 | 255 | 4.0 | 10.0 | 0.00 | 0.00 | 0.00 | 68 | 1015.3 |
| 20260902001531 | 57 | 284 | 4.0 | 10.0 | 0.00 | 0.00 | 0.00 | 69 | 1015.4 |
| 20260902000030 | 56 | 265 | 2.0 | 10.0 | 0.00 | 0.00 | 0.00 | 71 | 1015.5 |
| 20260901234529 | 56 | 257 | 3.0 | 10.0 | 0.00 | 0.00 | 0.00 | 72 | 1015.6 |
| 20260901233028 | 56 | 227 | 3.0 | 11.0 | 0.00 | 0.00 | 0.00 | 73 | 1015.4 |
| 20260901231529 | 55 | 244 | 4.0 | 12.0 | 0.00 | 0.00 | 0.00 | 73 | 1015.5 |
| 20260901230029 | 55 | 212 | 2.0 | 11.0 | 0.00 | 0.00 | 0.00 | 74 | 1015.5 |
| 20260901224534 | 55 | 287 | 5.0 | 9.0 | 0.00 | 0.00 | 0.00 | 76 | 1015.5 |
| 20260901223024 | 55 | 271 | 6.0 | 12.0 | 0.00 | 0.00 | 0.00 | 79 | 1015.3 |
| 20260901221522 | 55 | 250 | 3.0 | 9.0 | 0.00 | 0.00 | 0.00 | 81 | 1015.2 |
| 20260901220020 | 54 | 273 | 1.0 | 7.0 | 0.00 | 0.00 | 0.00 | 81 | 1014.9 |
| 20260901214518 | 54 | 231 | 3.0 | 8.0 | 0.00 | 0.00 | 0.00 | 81 | 1014.8 |
| 20260901213028 | 54 | 263 | 2.0 | 8.0 | 0.00 | 0.00 | 0.00 | 82 | 1014.7 |
| 20260901211514 | 55 | 261 | 3.0 | 10.0 | 0.00 | 0.00 | 0.00 | 83 | 1014.7 |
| 20260901210013 | 55 | 263 | 3.0 | 8.0 | 0.00 | 0.00 | 0.00 | 83 | 1014.4 |
| 20260901204511 | 55 | 247 | 1.0 | 7.0 | 0.00 | 0.00 | 0.00 | 84 | 1014.2 |
| 20260901203007 | 55 | 239 | 2.0 | 10.0 | 0.00 | 0.00 | 0.00 | 86 | 1013.7 |
| 20260901201508 | 55 | 241 | 4.0 | 7.0 | 0.00 | 0.00 | 0.00 | 87 | 1013.6 |
| 20260901200002 | 55 | 284 | 1.0 | 8.0 | 0.00 | 0.00 | 0.00 | 88 | 1013.4 |
| 20260901194601 | 56 | 275 | 0.0 | 5.0 | 0.00 | 0.00 | 0.00 | 87 | 1013.3 |
| 20260901193057 | 56 | 263 | 1.0 | 7.0 | 0.00 | 0.00 | 0.00 | 87 | 1013.2 |